x

Sentry Shoal (46131) Wave Buoy

11:00 - Thu 28th May 2015 All times are PDT. -7 hours from GMT.

  • Sig Wave height 0.7ft
  • Peak Period 2s
  • Wind
    9mph
  • Sea Temp 63°f
  • Luft Temp 60°f
  • Sea Pressure 1018.9mb
  • Sentry Shoal
  • Sentry Shoal

More Historic Weather Station data

Upgrade to MSW Pro to gain access to the past 30 days of data for over 8000 Wavebouys and Weather Stations around the globe.

Join Pro

Comparision Forecast

View Surf forecast
   
Do 05/28 11:00 0.7ft 2s 9
mph
1018.9mb 63f 60f
10:00 0.7ft 2s 11 13 mph 1019.1mb 62f 58f
9:00 0.7ft 3s 9 11 mph 1019.3mb 62f 57f
8:00 1ft 2s 11 13 mph 1019.2mb 63f 56f
7:00 1.3ft 2s 11 13 mph 1018.9mb 62f 56f
6:00 1ft 3s 13 18 mph 1018.5mb 62f 56f
5:00 1ft 2s 16 18 mph 1018.2mb 62f 57f
4:00 1.6ft 3s 16 18 mph 1017.8mb 62f 57f
3:00 1.6ft 3s 13 16 mph 1017.6mb 63f 58f
1:00 1.6ft 3s 18 20 mph 1017.1mb 64f 60f
12:00 1.6ft 3s 18 22 mph 1016.7mb 65f 61f
Mi 05/27 11:00 1.6ft 3s 18 20 mph 1016.7mb 65f 63f
10:00 1ft 2s 18 20 mph 1016.4mb 66f 65f
9:00 0.3ft 2s 7 13 mph 1016.2mb 66f 66f
8:00 0.3ft 2s 4
mph
1015.8mb 66f 66f
7:00  -  4s 4 7 mph 1015.8mb 67f 66f
6:00 0.3ft 3s 7
mph
1015.8mb 67f 67f
5:00 0.3ft 3s 7
mph
1016.2mb 68f 66f
4:00  -  2s 4
mph
1016.7mb 68f 66f
3:00 0.3ft 4s 2
mph
1017.2mb 68f 66f
2:00 0.3ft 2s 2
mph
1017.6mb 67f 65f
1:00 0.3ft 2s 2 4 mph 1018mb 66f 64f
12:00 0.3ft 2s 4 7 mph 1018.4mb 65f 62f
11:00 0.3ft 2s 7
mph
1018.5mb 65f 60f
10:00 0.7ft 2s 9 11 mph 1018.6mb 65f 58f
9:00 1ft 2s 11 13 mph 1018.8mb 64f 57f
8:00 1ft 2s 13 16 mph 1018.6mb 64f 56f
7:00 1ft 2s 13 16 mph 1018.6mb 64f 56f
6:00 1ft 3s 11 13 mph 1018.3mb 64f 56f
5:00 0.7ft 3s 13 16 mph 1017.9mb 64f 57f
4:00 0.7ft 2s 11 16 mph 1017.7mb 64f 57f
3:00 0.7ft 3s 9 11 mph 1017.4mb 64f 58f
2:00 0.7ft 3s 11 13 mph 1017mb 64f 59f
1:00 1.3ft 2s 9 11 mph 1016.9mb 64f 60f
12:00 1.3ft 4s 13 16 mph 1016.8mb 64f 61f
Di 05/26 11:00 2ft 4s 18
mph
1016.4mb 64f 62f
10:00 1.3ft 3s 18 22 mph 1015.9mb 65f 63f
9:00 0.3ft 2s 13 18 mph 1015.4mb 66f 65f
8:00  -  2s 4
mph
1015.1mb 66f 67f
7:00  -  3s 4 7 mph 1015mb 66f 65f
6:00  -  2s 4 7 mph 1015.1mb 66f 65f
5:00 0.3ft 3s 7 9 mph 1015.4mb 67f 65f
4:00 0.3ft 3s 9
mph
1015.9mb 67f 64f
3:00  -  2s 7
mph
1016.6mb 67f 64f
2:00  -  2s 2 4 mph 1017mb 66f 64f
1:00 0.3ft 2s 4
mph
1017.2mb 65f 62f
12:00 0.3ft 2s 4 7 mph 1017.6mb 64f 61f
11:00 0.7ft 2s 7 9 mph 1017.9mb 64f 60f
10:00 1ft 3s 9 11 mph 1018mb 63f 58f
9:00 1ft 3s 13 16 mph 1018mb 63f 57f
8:00 1ft 3s 11 13 mph 1018.1mb 63f 56f
7:00 1ft 3s 13 16 mph 1017.8mb 62f 56f
6:00 1ft 2s 13 16 mph 1017.8mb 62f 55f
5:00 0.7ft 2s 13 16 mph 1017.4mb 62f 56f
4:00 1ft 2s 11 13 mph 1017.2mb 62f 56f
3:00 1ft 2s 13 16 mph 1016.9mb 62f 56f
2:00 1.3ft 3s 11 13 mph 1016.8mb 62f 57f
1:00 1.3ft 3s 16 20 mph 1016.4mb 62f 58f
12:00 1ft 2s 16 18 mph 1016.1mb 62f 58f
Mo 05/25 11:00 1ft 3s 4 13 mph 1016mb 62f 61f
10:00 1ft 3s 9 11 mph 1015.5mb 63f 61f
9:00 1ft 2s 11
mph
1014.9mb 64f 62f
8:00 1ft 2s 11 13 mph 1014.5mb 64f 62f
7:00 0.3ft 2s 13
mph
1014.3mb 64f 62f
6:00 0.3ft 5s 9 11 mph 1014.4mb 65f 63f
5:00 0.3ft 5s 7 9 mph 1014.7mb 65f 63f
4:00 0.3ft 2s 7
mph
1014.9mb 66f 62f
3:00 0.3ft 3s 4
mph
1014.9mb 66f 64f
2:00 0.3ft 3s  -  2 mph 1015.2mb 65f 63f
1:00 0.7ft 3s 4 7 mph 1015.4mb 64f 60f
12:00 0.7ft 3s 9
mph
1015.5mb 63f 59f
11:00 1ft 3s 11 13 mph 1015.4mb 62f 58f
10:00 1ft 3s 11 13 mph 1015.4mb 61f 57f
9:00 1ft 3s 13 16 mph 1015.5mb 61f 56f
8:00 0.7ft 2s 11 13 mph 1015.4mb 61f 55f
7:00 0.7ft 2s 9 11 mph 1015.4mb 62f 55f
6:00 0.7ft 2s 9 13 mph 1015.4mb 62f 54f
5:00 1ft 3s 9 13 mph 1015.4mb 61f 55f
4:00 1ft 3s 11 13 mph 1015.5mb 61f 55f
3:00 1.3ft 3s 11 13 mph 1015.6mb 61f 56f
2:00 1.3ft 3s 13 16 mph 1015.4mb 61f 56f
1:00 1.3ft 3s 11 13 mph 1015.3mb 61f 57f
12:00 2ft 4s 16 18 mph 1015.2mb 62f 58f
So 05/24 11:00 2ft 4s 18 20 mph 1015.2mb 62f 59f
10:00 1.3ft 3s 20 25 mph 1014.6mb 62f 60f
9:00 0.3ft 2s 4 9 mph 1014.6mb 63f 62f
8:00 0.3ft 2s 4 7 mph 1014.4mb 63f 64f